RH
28 27 30 35 28 33 31 34 60 75 73 59 80 90 85 55 27 34 55 53 51 47 44 43 38 36 39 56 77 80 81 76 71
35 30 29 35 35 34 31 29 32 45 41 41 68 74 83 92 100 89 45 56 57 55 54 50 48 48 43 36 33 34 36 38 40
36 38 36 38 44 36 41 42 42 37 40 40 53 34 54 71 68 70 92 73 48 60 60 52 56 58 55 53 50 50 50 55 58
46 35 38 42 43 44 41 43 39 40 44 44 47 33 25 22 46 66 58 44 71 72 66 73 71 69 68 68 68 67 71 71 70
31 38 42 40 34 39 41 37 38 36 34 36 40 45 35 31 28 38 42 29 27 20 59 70 70 68 69 70 73 78 78 76 73
14 15 18 26 32 32 30 30 29 30 38 35 34 40 40 37 45 51 58 58 19 17 15 17 30 53 66 63 55 51 56 44 37
12 10 10 10 13 17 22 25 26 27 31 35 38 43 43 41 35 36 47 34 30 26 35 38 34 25 22 25 31 35 31 24 20
13 10 9 7 8 9 12 16 22 26 28 34 36 45 54 47 41 36 32 27 24 36 41 39 50 51 47 51 47 30 30 28 23
18 9 6 7 6 7 8 9 12 18 26 31 45 46 56 60 50 40 37 31 29 27 27 29 27 26 32 38 49 50 44 52 60
10 7 5 4 6 6 6 8 10 13 18 26 34 51 51 58 66 52 43 36 35 34 32 29 29 27 24 22 20 26 37 52 61
7 5 3 3 4 5 6 7 9 13 15 18 23 30 40 53 63 68 57 51 42 40 37 34 31 28 26 26 25 22 23 28 58
5 3 3 3 3 4 5 6 7 10 16 20 23 27 42 67 63 75 71 68 60 53 48 45 40 35 31 28 26 25 24 24 25
5 4 4 4 3 3 4 5 7 10 13 18 24 32 39 64 74 71 82 73 74 69 62 52 46 43 41 33 27 24 22 22 20
10 5 5 4 3 3 4 5 8 10 12 16 23 33 46 72 84 90 89 81 74 74 74 67 64 53 44 36 32 27 22 20 19
18 11 6 4 4 3 5 6 8 12 13 14 18 29 42 65 64 84 89 93 100 82 74 70 63 48 41 34 27 20 18 17 15
21 23 13 8 6 5 6 7 10 12 14 14 16 24 41 53 57 57 73 77 62 49 42 33 32 26 20 17 14 12 12 12 12
32 26 28 19 11 10 8 10 11 13 14 14 15 17 23 38 49 56 50 48 50 48 45 34 29 24 19 17 15 15 13 12 11
50 38 30 32 29 17 14 12 11 12 14 14 14 15 20 28 44 45 44 47 48 38 31 27 25 23 21 19 17 15 14 15 14
52 50 37 33 36 35 25 19 17 14 13 14 15 16 19 24 34 34 41 38 35 32 32 31 29 26 24 23 21 19 19 18 16
55 56 50 37 36 34 36 35 26 24 21 18 19 20 21 23 28 29 28 32 36 35 31 28 24 20 18 16 14 13 13 13 13
Wind_Speed
47 46 41 37 33 31 29 26 22 23 25 24 24 24 26 26 29 32 32 30 30 31 34 35 36 39 45 52 53 51 51 52 52
52 49 45 42 40 36 33 30 28 27 28 25 25 27 28 28 29 29 31 33 32 31 31 31 31 34 36 39 42 44 44 42 42
51 49 47 45 45 41 38 36 33 33 31 30 30 32 34 35 35 33 32 32 35 35 33 33 32 32 33 34 36 37 37 37 36
59 54 51 48 48 48 43 43 43 44 45 44 41 37 37 36 38 38 37 36 36 36 37 38 38 37 36 36 35 36 36 36 37
68 70 70 66 64 60 60 57 57 50 52 50 46 44 43 42 41 39 41 42 39 39 39 40 41 41 40 40 39 39 40 40 40
75 74 74 76 77 75 74 70 64 62 60 58 55 51 49 49 43 42 41 43 43 42 41 40 41 42 43 43 43 44 44 43 43
79 79 79 79 80 80 79 77 75 71 67 67 63 60 57 55 54 49 48 49 46 44 41 40 41 42 43 43 43 44 43 43 42
72 72 76 78 81 82 83 82 80 77 74 71 69 66 63 61 59 58 55 56 53 48 46 45 44 43 44 43 44 43 42 42 42
78 76 69 74 76 81 84 83 82 81 80 76 75 71 69 68 64 63 61 58 58 57 54 52 52 52 51 50 47 45 45 44 42
79 83 80 71 69 75 78 84 83 83 82 81 78 76 74 71 69 66 65 62 62 62 60 59 58 59 57 56 55 53 50 47 47
84 79 68 59 59 68 73 76 81 83 82 82 81 77 75 73 71 69 69 67 65 65 65 64 64 63 61 61 61 59 57 56 51
68 58 51 47 49 58 65 69 73 76 81 83 81 79 75 74 72 71 71 70 68 67 68 68 68 67 66 64 65 65 65 64 63
58 50 43 37 38 43 57 62 67 70 72 78 81 80 78 75 74 73 72 72 71 71 71 71 70 70 70 70 71 70 70 69 68
58 48 38 32 27 30 42 54 60 66 67 70 75 78 77 77 76 75 73 72 73 73 74 73 72 73 74 75 75 76 76 75 72
61 55 40 26 20 19 28 43 54 60 61 63 68 73 76 76 76 76 75 75 75 77 76 75 76 76 76 77 79 79 78 77 76
60 61 53 35 22 14 21 34 47 51 54 56 60 66 70 74 75 74 76 78 77 75 76 75 75 76 78 79 80 79 78 79 78
59 59 59 53 35 20 13 24 36 42 45 49 53 58 63 67 71 73 74 73 75 75 75 75 75 76 77 78 78 78 79 79 79
53 53 53 52 48 35 19 13 25 33 36 39 43 49 55 59 64 66 66 67 68 68 67 64 64 67 69 70 70 72 73 74 76
47 48 46 44 43 40 34 19 12 20 26 28 32 38 45 50 56 56 56 56 56 52 53 55 55 56 57 58 60 61 62 64 66
43 43 43 40 37 36 32 30 24 11 15 24 26 27 31 36 41 42 41 39 41 43 44 45 45 44 42 42 43 45 47 50 51
Wind_Direction
291 290 279 269 270 270 271 272 274 280 282 280 278 277 274 265 259 259 259 258 257 256 255 252 253 254 253 252 254 256 259 263 264
291 288 282 268 262 265 268 267 266 271 274 278 275 265 265 264 265 262 259 256 256 254 256 257 256 257 256 256 256 257 260 261 263
289 286 281 270 263 260 259 264 265 271 274 278 275 273 270 267 268 265 262 259 255 254 255 254 256 258 258 257 257 258 259 262 264
292 288 280 273 266 258 258 266 266 269 271 277 274 270 274 275 269 269 265 261 258 255 253 252 255 257 256 256 257 259 261 262 263
285 284 281 274 270 265 263 263 265 264 269 270 268 266 268 274 274 270 268 265 261 259 257 254 254 255 256 257 257 256 258 260 262
284 276 269 269 268 266 262 260 260 261 264 265 264 262 264 265 265 265 261 262 261 261 260 261 260 259 258 257 259 259 261 263 264
287 280 273 265 259 257 259 258 257 258 258 261 262 260 258 262 261 264 261 259 262 261 260 260 261 261 262 262 261 262 262 263 264
288 280 276 269 260 255 251 252 253 254 255 258 260 259 257 257 258 258 265 261 259 259 259 258 257 258 259 259 259 260 260 262 264
291 291 283 271 264 255 249 247 247 249 251 253 255 256 257 255 255 253 257 259 258 258 257 256 256 256 256 258 259 260 261 260 260
293 293 292 281 265 257 252 245 243 244 246 249 251 254 255 254 253 252 254 255 256 257 257 256 255 256 257 258 259 259 259 260 260
301 301 294 281 265 253 249 245 241 239 242 245 247 249 251 251 252 253 252 252 255 257 258 258 258 258 258 258 257 257 257 256 256
315 310 299 284 269 252 248 243 240 239 238 240 242 245 245 248 251 252 252 253 254 256 257 259 259 260 260 260 260 260 258 255 255
331 321 309 294 274 256 245 242 238 236 235 236 239 241 243 244 248 251 251 252 255 257 258 259 260 262 263 263 262 261 261 260 259
355 340 325 306 288 261 244 239 235 233 234 234 235 238 240 243 246 249 252 255 256 257 258 260 262 262 263 264 264 263 262 261 261
8 4 348 335 313 261 240 236 233 231 232 234 235 236 239 241 244 246 250 253 255 257 258 261 263 264 265 264 264 265 265 266 266
8 12 12 2 354 304 249 229 228 230 233 237 239 238 239 241 244 247 248 251 253 257 259 262 264 265 266 266 267 269 268 268 267
4 9 15 17 11 0 291 238 231 231 235 240 242 244 245 245 246 248 251 255 257 260 263 265 266 266 267 267 268 267 266 266 266
2 4 8 15 18 16 2 296 248 240 243 248 250 250 250 250 251 253 255 258 261 263 266 268 269 268 267 267 266 265 264 264 264
355 0 4 10 19 22 23 4 310 262 254 255 256 255 254 254 254 258 261 263 265 267 267 267 267 267 267 267 265 264 264 264 264
346 352 357 4 8 15 22 27 29 360 284 268 265 262 261 260 261 263 266 266 265 265 266 269 271 272 272 271 270 268 267 266 266